Time,TemperatureF,DewpointF,PressureIn,WindDirection,WindDirectionDegrees,WindSpeedMPH,WindSpeedGustMPH,Humidity,HourlyPrecipIn,Conditions,Clouds,dailyrainin,SoftwareType,DateUTC
2013-01-03 00:00:00,40.2,37.5,30.16,NE,51,0.0,0.0,90,0.00,,,0.20,WUHU216DAVISVP2,2013-01-03 05:00:00,
2013-01-03 00:02:00,40.2,37.5,30.16,NE,51,0.0,0.0,90,0.00,,,0.00,WUHU216DAVISVP2,2013-01-03 05:02:00,
2013-01-03 00:03:00,40.2,37.5,30.16,NE,51,0.0,0.0,90,0.00,,,0.00,WUHU216DAVISVP2,2013-01-03 05:03:00,
2013-01-03 00:08:00,40.1,37.4,30.16,NE,51,0.0,0.0,90,0.00,,,0.00,WUHU216DAVISVP2,2013-01-03 05:08:00,
2013-01-03 00:13:00,40.1,37.4,30.16,NE,51,0.0,0.0,90,0.00,,,0.00,WUHU216DAVISVP2,2013-01-03 05:13:00,
2013-01-03 00:18:00,40.2,37.5,30.15,NE,51,0.0,0.0,90,0.00,,,0.00,WUHU216DAVISVP2,2013-01-03 05:18:00,
2013-01-03 00:23:00,40.1,37.4,30.15,NE,51,0.0,0.0,90,0.00,,,0.00,WUHU216DAVISVP2,2013-01-03 05:23:00,
2013-01-03 00:28:00,40.1,37.4,30.15,NE,51,0.0,0.0,90,0.00,,,0.00,WUHU216DAVISVP2,2013-01-03 05:28:00,
2013-01-03 00:33:00,40.2,37.5,30.15,NE,51,0.0,0.0,90,0.00,,,0.00,WUHU216DAVISVP2,2013-01-03 05:33:00,
2013-01-03 00:38:00,40.1,37.4,30.15,NE,51,0.0,0.0,90,0.00,,,0.00,WUHU216DAVISVP2,2013-01-03 05:38:00,
2013-01-03 00:43:00,40.1,37.4,30.15,NE,51,0.0,0.0,90,0.00,,,0.00,WUHU216DAVISVP2,2013-01-03 05:43:00,
2013-01-03 00:48:00,40.2,37.5,30.15,NE,51,0.0,0.0,90,0.00,,,0.00,WUHU216DAVISVP2,2013-01-03 05:48:00,
2013-01-03 00:53:00,40.2,37.5,30.15,NE,51,0.0,0.0,90,0.00,,,0.00,WUHU216DAVISVP2,2013-01-03 05:53:00,
2013-01-03 00:58:00,40.2,37.5,30.15,NE,51,0.0,0.0,90,0.00,,,0.00,WUHU216DAVISVP2,2013-01-03 05:58:00,
2013-01-03 01:03:00,40.3,37.6,30.15,NE,51,0.0,0.0,90,0.00,,,0.00,WUHU216DAVISVP2,2013-01-03 06:03:00,
2013-01-03 01:08:00,40.3,37.6,30.15,NE,51,0.0,0.0,90,0.00,,,0.00,WUHU216DAVISVP2,2013-01-03 06:08:00,
2013-01-03 01:13:00,40.3,37.6,30.15,NE,51,0.0,0.0,90,0.00,,,0.00,WUHU216DAVISVP2,2013-01-03 06:13:00,
2013-01-03 01:18:00,40.3,37.6,30.15,NE,51,0.0,0.0,90,0.00,,,0.00,WUHU216DAVISVP2,2013-01-03 06:18:00,
2013-01-03 01:23:00,40.3,37.6,30.15,NE,51,0.0,0.0,90,0.00,,,0.00,WUHU216DAVISVP2,2013-01-03 06:23:00,
2013-01-03 01:28:00,40.3,37.6,30.15,NE,51,0.0,0.0,90,0.00,,,0.00,WUHU216DAVISVP2,2013-01-03 06:28:00,
2013-01-03 01:33:00,40.3,37.6,30.14,NE,51,0.0,0.0,90,0.00,,,0.00,WUHU216DAVISVP2,2013-01-03 06:33:00,
2013-01-03 01:38:00,40.3,37.8,30.14,NE,51,0.0,0.0,91,0.00,,,0.00,WUHU216DAVISVP2,2013-01-03 06:38:00,
2013-01-03 01:43:00,40.3,37.8,30.14,NE,51,0.0,0.0,91,0.00,,,0.00,WUHU216DAVISVP2,2013-01-03 06:43:00,
2013-01-03 01:48:00,40.3,37.8,30.14,NE,51,0.0,0.0,91,0.00,,,0.00,WUHU216DAVISVP2,2013-01-03 06:48:00,
2013-01-03 01:53:00,40.2,37.7,30.14,NE,51,0.0,0.0,91,0.00,,,0.00,WUHU216DAVISVP2,2013-01-03 06:53:00,
2013-01-03 01:58:00,40.2,37.7,30.14,NE,51,0.0,0.0,91,0.00,,,0.00,WUHU216DAVISVP2,2013-01-03 06:58:00,
2013-01-03 02:03:00,40.2,37.7,30.15,NE,51,0.0,0.0,91,0.00,,,0.00,WUHU216DAVISVP2,2013-01-03 07:03:00,
2013-01-03 02:08:00,40.2,37.7,30.15,NE,51,0.0,0.0,91,0.00,,,0.00,WUHU216DAVISVP2,2013-01-03 07:08:00,
2013-01-03 02:13:00,40.2,37.7,30.15,NE,51,0.0,0.0,91,0.00,,,0.00,WUHU216DAVISVP2,2013-01-03 07:13:00,
2013-01-03 02:18:00,40.3,37.8,30.16,NE,51,0.0,0.0,91,0.00,,,0.00,WUHU216DAVISVP2,2013-01-03 07:18:00,
2013-01-03 02:23:00,40.3,37.8,30.16,NE,51,0.0,0.0,91,0.00,,,0.00,WUHU216DAVISVP2,2013-01-03 07:23:00,
2013-01-03 02:28:00,40.3,37.8,30.16,NE,51,0.0,0.0,91,0.00,,,0.00,WUHU216DAVISVP2,2013-01-03 07:28:00,
2013-01-03 02:33:00,40.2,37.7,30.16,NE,51,0.0,0.0,91,0.00,,,0.00,WUHU216DAVISVP2,2013-01-03 07:33:00,
2013-01-03 02:38:00,40.2,37.7,30.16,NE,51,0.0,0.0,91,0.00,,,0.00,WUHU216DAVISVP2,2013-01-03 07:38:00,
2013-01-03 02:43:00,40.2,37.7,30.16,NE,51,0.0,1.0,91,0.00,,,0.00,WUHU216DAVISVP2,2013-01-03 07:43:00,
2013-01-03 02:48:00,40.2,37.7,30.16,NE,51,0.0,1.0,91,0.00,,,0.00,WUHU216DAVISVP2,2013-01-03 07:48:00,
2013-01-03 02:53:00,40.2,37.7,30.16,NE,51,0.0,0.0,91,0.00,,,0.00,WUHU216DAVISVP2,2013-01-03 07:53:00,
2013-01-03 02:58:00,40.2,37.8,30.16,NE,51,0.0,0.0,91,0.00,,,0.00,WUHU216DAVISVP2,2013-01-03 07:58:00,
2013-01-03 03:03:00,40.2,37.8,30.16,NE,51,0.0,0.0,91,0.00,,,0.00,WUHU216DAVISVP2,2013-01-03 08:03:00,
2013-01-03 03:08:00,40.2,37.8,30.16,NE,51,0.0,0.0,91,0.00,,,0.00,WUHU216DAVISVP2,2013-01-03 08:08:00,
2013-01-03 03:13:00,40.2,37.8,30.16,NE,51,0.0,0.0,91,0.00,,,0.00,WUHU216DAVISVP2,2013-01-03 08:13:00,
2013-01-03 03:18:00,40.2,37.7,30.16,NE,51,0.0,0.0,91,0.00,,,0.00,WUHU216DAVISVP2,2013-01-03 08:18:00,
2013-01-03 03:23:00,40.2,37.7,30.16,NE,51,0.0,0.0,91,0.00,,,0.00,WUHU216DAVISVP2,2013-01-03 08:23:00,
2013-01-03 03:28:00,40.2,37.7,30.16,NE,51,0.0,0.0,91,0.00,,,0.00,WUHU216DAVISVP2,2013-01-03 08:28:00,
2013-01-03 03:33:00,40.3,37.8,30.16,NE,51,0.0,0.0,91,0.00,,,0.00,WUHU216DAVISVP2,2013-01-03 08:33:00,
2013-01-03 03:38:00,40.3,37.8,30.16,NE,51,0.0,0.0,91,0.00,,,0.00,WUHU216DAVISVP2,2013-01-03 08:38:00,
2013-01-03 03:43:00,40.3,37.9,30.16,NE,51,0.0,0.0,91,0.00,,,0.00,WUHU216DAVISVP2,2013-01-03 08:43:00,
2013-01-03 03:48:00,40.3,37.9,30.16,NE,51,0.0,0.0,91,0.00,,,0.00,WUHU216DAVISVP2,2013-01-03 08:48:00,
2013-01-03 03:53:00,40.3,37.8,30.16,NE,51,0.0,0.0,91,0.00,,,0.00,WUHU216DAVISVP2,2013-01-03 08:53:00,
2013-01-03 03:58:00,40.3,37.8,30.16,NE,51,0.0,0.0,91,0.00,,,0.00,WUHU216DAVISVP2,2013-01-03 08:58:00,
2013-01-03 04:03:00,40.3,37.8,30.15,NE,51,0.0,1.0,91,0.00,,,0.00,WUHU216DAVISVP2,2013-01-03 09:03:00,
2013-01-03 04:08:00,40.3,37.8,30.15,NE,51,0.0,1.0,91,0.00,,,0.00,WUHU216DAVISVP2,2013-01-03 09:08:00,
2013-01-03 04:13:00,40.3,37.8,30.15,NE,51,0.0,0.0,91,0.00,,,0.00,WUHU216DAVISVP2,2013-01-03 09:13:00,
2013-01-03 04:18:00,40.3,37.8,30.16,NE,51,0.0,0.0,91,0.00,,,0.00,WUHU216DAVISVP2,2013-01-03 09:18:00,
2013-01-03 04:23:00,40.5,38.0,30.16,NE,51,0.0,0.0,91,0.00,,,0.00,WUHU216DAVISVP2,2013-01-03 09:23:00,
2013-01-03 04:28:00,40.5,38.1,30.16,NE,51,0.0,2.0,91,0.00,,,0.00,WUHU216DAVISVP2,2013-01-03 09:28:00,
2013-01-03 04:33:00,40.5,38.1,30.15,NE,51,0.0,2.0,91,0.00,,,0.00,WUHU216DAVISVP2,2013-01-03 09:33:00,
2013-01-03 04:38:00,40.3,37.9,30.15,NE,51,0.0,0.0,91,0.00,,,0.00,WUHU216DAVISVP2,2013-01-03 09:38:00,
2013-01-03 04:43:00,40.5,38.1,30.15,NE,51,0.0,0.0,91,0.00,,,0.00,WUHU216DAVISVP2,2013-01-03 09:43:00,
2013-01-03 04:48:00,40.5,38.0,30.15,NE,51,0.0,0.0,91,0.00,,,0.00,WUHU216DAVISVP2,2013-01-03 09:48:00,
2013-01-03 04:53:00,40.5,38.1,30.15,NE,51,0.0,0.0,91,0.00,,,0.00,WUHU216DAVISVP2,2013-01-03 09:53:00,
2013-01-03 04:58:00,40.5,38.1,30.15,NE,51,0.0,0.0,91,0.00,,,0.00,WUHU216DAVISVP2,2013-01-03 09:58:00,
2013-01-03 05:03:00,40.5,38.1,30.15,NE,51,0.0,1.0,91,0.00,,,0.00,WUHU216DAVISVP2,2013-01-03 10:03:00,
2013-01-03 05:08:00,40.5,38.0,30.15,NE,51,0.0,1.0,91,0.00,,,0.00,WUHU216DAVISVP2,2013-01-03 10:08:00,
2013-01-03 05:13:00,40.5,38.0,30.15,NE,51,0.0,1.0,91,0.00,,,0.00,WUHU216DAVISVP2,2013-01-03 10:13:00,
2013-01-03 05:18:00,40.5,38.0,30.15,NE,51,0.0,1.0,91,0.00,,,0.00,WUHU216DAVISVP2,2013-01-03 10:18:00,
2013-01-03 05:23:00,40.5,38.0,30.15,NE,51,0.0,0.0,91,0.00,,,0.00,WUHU216DAVISVP2,2013-01-03 10:23:00,
2013-01-03 05:28:00,40.5,38.0,30.15,NE,51,0.0,0.0,91,0.00,,,0.00,WUHU216DAVISVP2,2013-01-03 10:28:00,
2013-01-03 05:33:00,40.5,38.1,30.16,NE,51,0.0,0.0,91,0.00,,,0.00,WUHU216DAVISVP2,2013-01-03 10:33:00,
2013-01-03 05:38:00,40.3,37.9,30.16,NE,51,0.0,0.0,91,0.00,,,0.00,WUHU216DAVISVP2,2013-01-03 10:38:00,
2013-01-03 05:43:00,40.3,37.9,30.16,NE,51,0.0,0.0,91,0.00,,,0.00,WUHU216DAVISVP2,2013-01-03 10:43:00,
2013-01-03 05:48:00,40.3,37.9,30.17,NE,51,0.0,0.0,91,0.00,,,0.00,WUHU216DAVISVP2,2013-01-03 10:48:00,
2013-01-03 05:53:00,40.3,37.8,30.17,NE,51,0.0,0.0,91,0.00,,,0.00,WUHU216DAVISVP2,2013-01-03 10:53:00,
2013-01-03 05:58:00,40.3,37.8,30.17,NE,51,0.0,2.0,91,0.00,,,0.00,WUHU216DAVISVP2,2013-01-03 10:58:00,
2013-01-03 06:03:00,40.3,37.8,30.16,NE,51,0.0,2.0,91,0.00,,,0.00,WUHU216DAVISVP2,2013-01-03 11:03:00,
2013-01-03 06:08:00,40.3,37.8,30.16,NE,51,0.0,1.0,91,0.00,,,0.00,WUHU216DAVISVP2,2013-01-03 11:08:00,
2013-01-03 06:13:00,40.3,37.8,30.16,NE,51,0.0,2.0,91,0.00,,,0.00,WUHU216DAVISVP2,2013-01-03 11:13:00,
2013-01-03 06:18:00,40.5,38.1,30.16,NE,51,0.0,2.0,91,0.00,,,0.00,WUHU216DAVISVP2,2013-01-03 11:18:00,
2013-01-03 06:23:00,40.3,37.8,30.16,NE,51,0.0,1.0,91,0.00,,,0.00,WUHU216DAVISVP2,2013-01-03 11:23:00,
2013-01-03 06:28:00,40.3,37.8,30.16,NE,51,0.0,1.0,91,0.00,,,0.00,WUHU216DAVISVP2,2013-01-03 11:28:00,
2013-01-03 06:33:00,40.3,37.8,30.17,NE,51,0.0,1.0,91,0.00,,,0.00,WUHU216DAVISVP2,2013-01-03 11:33:00,
2013-01-03 06:38:00,40.3,37.8,30.17,NE,51,0.0,2.0,91,0.00,,,0.00,WUHU216DAVISVP2,2013-01-03 11:38:00,
2013-01-03 06:43:00,40.2,37.8,30.17,NE,51,0.0,2.0,91,0.00,,,0.00,WUHU216DAVISVP2,2013-01-03 11:43:00,
2013-01-03 06:48:00,40.2,37.8,30.17,NE,51,0.0,0.0,91,0.00,,,0.00,WUHU216DAVISVP2,2013-01-03 11:48:00,
2013-01-03 06:53:00,40.2,37.8,30.17,NE,51,0.0,0.0,91,0.00,,,0.00,WUHU216DAVISVP2,2013-01-03 11:53:00,
2013-01-03 06:58:00,40.2,37.8,30.17,NE,51,0.0,0.0,91,0.00,,,0.00,WUHU216DAVISVP2,2013-01-03 11:58:00,
2013-01-03 07:03:00,40.2,37.7,30.18,NE,51,0.0,0.0,91,0.00,,,0.00,WUHU216DAVISVP2,2013-01-03 12:03:00,
2013-01-03 07:08:00,40.3,37.8,30.18,NE,51,0.0,0.0,91,0.00,,,0.00,WUHU216DAVISVP2,2013-01-03 12:08:00,
2013-01-03 07:13:00,40.3,37.8,30.18,NE,51,0.0,0.0,91,0.00,,,0.00,WUHU216DAVISVP2,2013-01-03 12:13:00,
2013-01-03 07:18:00,40.3,37.9,30.20,NE,51,0.0,0.0,91,0.00,,,0.00,WUHU216DAVISVP2,2013-01-03 12:18:00,
2013-01-03 07:23:00,40.3,37.9,30.20,NE,51,0.0,0.0,91,0.00,,,0.00,WUHU216DAVISVP2,2013-01-03 12:23:00,
2013-01-03 07:28:00,40.3,37.8,30.20,NE,51,0.0,0.0,91,0.00,,,0.00,WUHU216DAVISVP2,2013-01-03 12:28:00,
2013-01-03 07:33:00,40.3,37.8,30.19,NE,51,0.0,1.0,91,0.00,,,0.00,WUHU216DAVISVP2,2013-01-03 12:33:00,
2013-01-03 07:38:00,40.3,37.8,30.19,NE,51,0.0,1.0,91,0.00,,,0.00,WUHU216DAVISVP2,2013-01-03 12:38:00,
2013-01-03 07:43:00,40.3,37.9,30.19,NE,51,0.0,0.0,91,0.00,,,0.00,WUHU216DAVISVP2,2013-01-03 12:43:00,
2013-01-03 07:48:00,40.3,37.9,30.19,NE,51,0.0,0.0,91,0.00,,,0.00,WUHU216DAVISVP2,2013-01-03 12:48:00,
2013-01-03 07:53:00,40.2,37.8,30.19,NE,51,1.0,1.0,91,0.00,,,0.00,WUHU216DAVISVP2,2013-01-03 12:53:00,
2013-01-03 07:58:00,40.2,37.8,30.19,NE,51,0.0,2.0,91,0.00,,,0.00,WUHU216DAVISVP2,2013-01-03 12:58:00,
2013-01-03 08:03:00,40.2,37.7,30.18,NE,51,0.0,2.0,91,0.00,,,0.00,WUHU216DAVISVP2,2013-01-03 13:03:00,
2013-01-03 08:08:00,40.3,37.8,30.18,NE,51,0.0,2.0,91,0.00,,,0.00,WUHU216DAVISVP2,2013-01-03 13:08:00,
2013-01-03 08:13:00,40.2,37.7,30.18,NE,51,0.0,2.0,91,0.00,,,0.00,WUHU216DAVISVP2,2013-01-03 13:13:00,
2013-01-03 08:18:00,40.1,37.6,30.19,NE,51,0.0,4.0,91,0.00,,,0.00,WUHU216DAVISVP2,2013-01-03 13:18:00,
2013-01-03 08:23:00,40.2,37.7,30.19,NE,51,1.0,4.0,91,0.00,,,0.00,WUHU216DAVISVP2,2013-01-03 13:23:00,
2013-01-03 08:28:00,40.1,37.6,30.19,ENE,59,0.0,4.0,91,0.00,,,0.00,WUHU216DAVISVP2,2013-01-03 13:28:00,
2013-01-03 08:33:00,40.1,37.6,30.19,ENE,61,0.0,4.0,91,0.00,,,0.00,WUHU216DAVISVP2,2013-01-03 13:33:00,
2013-01-03 08:38:00,40.1,37.6,30.19,ENE,61,0.0,4.0,91,0.00,,,0.00,WUHU216DAVISVP2,2013-01-03 13:38:00,
2013-01-03 08:43:00,40.1,37.6,30.19,ENE,61,0.0,4.0,91,0.00,,,0.00,WUHU216DAVISVP2,2013-01-03 13:43:00,
2013-01-03 08:48:00,40.1,37.6,30.20,ENE,61,0.0,2.0,91,0.00,,,0.00,WUHU216DAVISVP2,2013-01-03 13:48:00,
2013-01-03 08:53:00,40.1,37.7,30.20,ENE,61,0.0,1.0,91,0.00,,,0.00,WUHU216DAVISVP2,2013-01-03 13:53:00,
2013-01-03 08:58:00,40.1,37.7,30.20,ENE,61,0.0,1.0,91,0.00,,,0.00,WUHU216DAVISVP2,2013-01-03 13:58:00,
2013-01-03 09:03:00,40.1,37.7,30.20,ENE,61,0.0,4.0,91,0.00,,,0.00,WUHU216DAVISVP2,2013-01-03 14:03:00,
2013-01-03 09:08:00,39.8,37.4,30.20,ENE,62,1.0,4.0,91,0.00,,,0.00,WUHU216DAVISVP2,2013-01-03 14:08:00,
2013-01-03 09:13:00,39.8,37.3,30.20,ENE,66,2.0,4.0,91,0.00,,,0.00,WUHU216DAVISVP2,2013-01-03 14:13:00,
2013-01-03 09:18:00,39.8,37.3,30.21,ENE,69,0.0,6.0,91,0.00,,,0.00,WUHU216DAVISVP2,2013-01-03 14:18:00,
2013-01-03 09:23:00,39.6,36.9,30.21,ENE,69,2.0,6.0,90,0.00,,,0.00,WUHU216DAVISVP2,2013-01-03 14:23:00,
2013-01-03 09:28:00,39.6,36.9,30.21,ENE,73,2.0,4.0,90,0.00,,,0.00,WUHU216DAVISVP2,2013-01-03 14:28:00,
2013-01-03 09:33:00,39.5,36.8,30.21,ENE,73,1.0,4.0,90,0.00,,,0.00,WUHU216DAVISVP2,2013-01-03 14:33:00,
2013-01-03 09:38:00,39.5,36.8,30.21,ENE,73,0.0,2.0,90,0.00,,,0.00,WUHU216DAVISVP2,2013-01-03 14:38:00,
2013-01-03 09:43:00,39.5,36.8,30.21,ENE,73,0.0,2.0,90,0.00,,,0.00,WUHU216DAVISVP2,2013-01-03 14:43:00,
2013-01-03 09:48:00,39.5,36.8,30.21,ENE,73,0.0,4.0,90,0.00,,,0.00,WUHU216DAVISVP2,2013-01-03 14:48:00,
2013-01-03 09:53:00,39.5,36.8,30.21,ENE,72,4.0,4.0,90,0.00,,,0.00,WUHU216DAVISVP2,2013-01-03 14:53:00,
2013-01-03 09:58:00,39.3,36.6,30.21,ENE,68,1.0,4.0,90,0.00,,,0.00,WUHU216DAVISVP2,2013-01-03 14:58:00,
2013-01-03 10:03:00,39.5,36.8,30.21,ENE,68,0.0,4.0,90,0.00,,,0.00,WUHU216DAVISVP2,2013-01-03 15:03:00,
2013-01-03 10:08:00,39.5,36.8,30.21,ENE,68,0.0,2.0,90,0.00,,,0.00,WUHU216DAVISVP2,2013-01-03 15:08:00,
2013-01-03 10:13:00,39.5,36.8,30.21,ENE,68,2.0,2.0,90,0.00,,,0.00,WUHU216DAVISVP2,2013-01-03 15:13:00,
2013-01-03 10:18:00,39.3,36.6,30.22,ENE,68,0.0,4.0,90,0.00,,,0.00,WUHU216DAVISVP2,2013-01-03 15:18:00,
2013-01-03 10:23:00,39.5,36.8,30.22,ENE,71,0.0,4.0,90,0.00,,,0.00,WUHU216DAVISVP2,2013-01-03 15:23:00,
2013-01-03 10:28:00,39.3,36.3,30.22,ENE,71,0.0,4.0,89,0.00,,,0.00,WUHU216DAVISVP2,2013-01-03 15:28:00,
2013-01-03 10:33:00,39.3,36.3,30.22,ENE,71,0.0,1.0,89,0.00,,,0.00,WUHU216DAVISVP2,2013-01-03 15:33:00,
2013-01-03 10:38:00,39.3,36.3,30.22,ENE,71,0.0,1.0,89,0.00,,,0.00,WUHU216DAVISVP2,2013-01-03 15:38:00,
2013-01-03 10:43:00,39.5,36.5,30.22,ENE,71,0.0,2.0,89,0.00,,,0.00,WUHU216DAVISVP2,2013-01-03 15:43:00,
2013-01-03 10:48:00,39.5,36.2,30.22,ENE,71,0.0,2.0,88,0.00,,,0.00,WUHU216DAVISVP2,2013-01-03 15:48:00,
2013-01-03 10:53:00,39.5,36.2,30.22,ENE,71,0.0,2.0,88,0.00,,,0.00,WUHU216DAVISVP2,2013-01-03 15:53:00,
2013-01-03 10:58:00,39.6,36.3,30.22,SE,141,0.0,2.0,88,0.00,,,0.00,WUHU216DAVISVP2,2013-01-03 15:58:00,
2013-01-03 11:03:00,39.8,36.5,30.22,SE,141,0.0,1.0,88,0.00,,,0.00,WUHU216DAVISVP2,2013-01-03 16:03:00,
2013-01-03 11:08:00,40.1,36.8,30.22,SE,141,0.0,1.0,88,0.00,,,0.00,WUHU216DAVISVP2,2013-01-03 16:08:00,
2013-01-03 11:13:00,40.1,36.8,30.22,SE,126,1.0,2.0,88,0.00,,,0.00,WUHU216DAVISVP2,2013-01-03 16:13:00,
2013-01-03 11:18:00,39.9,36.3,30.20,ESE,112,1.0,4.0,87,0.00,,,0.00,WUHU216DAVISVP2,2013-01-03 16:18:00,
2013-01-03 11:23:00,39.9,36.3,30.20,ESE,112,0.0,4.0,87,0.00,,,0.00,WUHU216DAVISVP2,2013-01-03 16:23:00,
2013-01-03 11:28:00,39.9,36.3,30.20,ESE,112,6.0,6.0,87,0.00,,,0.00,WUHU216DAVISVP2,2013-01-03 16:28:00,
2013-01-03 11:33:00,40.1,36.5,30.19,ESE,110,0.0,6.0,87,0.00,,,0.00,WUHU216DAVISVP2,2013-01-03 16:33:00,
2013-01-03 11:38:00,40.1,36.5,30.19,East,85,4.0,4.0,87,0.00,,,0.00,WUHU216DAVISVP2,2013-01-03 16:38:00,
2013-01-03 11:43:00,39.9,36.3,30.19,East,88,0.0,4.0,87,0.00,,,0.00,WUHU216DAVISVP2,2013-01-03 16:43:00,
2013-01-03 11:48:00,39.9,36.3,30.19,East,88,0.0,4.0,87,0.00,,,0.00,WUHU216DAVISVP2,2013-01-03 16:48:00,
2013-01-03 11:53:00,40.1,36.5,30.19,East,88,0.0,1.0,87,0.00,,,0.00,WUHU216DAVISVP2,2013-01-03 16:53:00,
2013-01-03 11:58:00,40.1,36.5,30.19,East,88,0.0,2.0,87,0.00,,,0.00,WUHU216DAVISVP2,2013-01-03 16:58:00,
2013-01-03 12:03:00,40.2,36.6,30.18,East,88,0.0,2.0,87,0.00,,,0.00,WUHU216DAVISVP2,2013-01-03 17:03:00,
2013-01-03 12:08:00,40.5,36.9,30.18,East,88,0.0,1.0,87,0.00,,,0.00,WUHU216DAVISVP2,2013-01-03 17:08:00,
2013-01-03 12:13:00,40.6,36.7,30.18,SW,219,0.0,6.0,86,0.00,,,0.00,WUHU216DAVISVP2,2013-01-03 17:13:00,
2013-01-03 12:18:00,40.8,36.9,30.17,East,97,0.0,6.0,86,0.00,,,0.00,WUHU216DAVISVP2,2013-01-03 17:18:00,
2013-01-03 12:23:00,40.9,36.7,30.17,ENE,72,4.0,4.0,85,0.00,,,0.00,WUHU216DAVISVP2,2013-01-03 17:23:00,
2013-01-03 12:28:00,41.3,37.1,30.17,ESE,104,0.0,6.0,85,0.00,,,0.00,WUHU216DAVISVP2,2013-01-03 17:28:00,
2013-01-03 12:33:00,41.6,37.4,30.16,ESE,103,2.0,6.0,85,0.00,,,0.00,WUHU216DAVISVP2,2013-01-03 17:33:00,
2013-01-03 12:38:00,41.6,37.4,30.16,East,96,0.0,4.0,85,0.00,,,0.00,WUHU216DAVISVP2,2013-01-03 17:38:00,
2013-01-03 12:43:00,41.5,37.3,30.16,East,96,0.0,4.0,85,0.00,,,0.00,WUHU216DAVISVP2,2013-01-03 17:43:00,
2013-01-03 12:48:00,41.8,37.6,30.15,East,96,0.0,2.0,85,0.00,,,0.00,WUHU216DAVISVP2,2013-01-03 17:48:00,
2013-01-03 12:53:00,41.8,37.0,30.15,East,96,0.0,2.0,83,0.00,,,0.00,WUHU216DAVISVP2,2013-01-03 17:53:00,
2013-01-03 12:58:00,41.9,37.4,30.15,East,96,0.0,1.0,84,0.00,,,0.00,WUHU216DAVISVP2,2013-01-03 17:58:00,
2013-01-03 13:03:00,42.3,37.5,30.15,East,96,0.0,2.0,83,0.00,,,0.00,WUHU216DAVISVP2,2013-01-03 18:03:00,
2013-01-03 13:08:00,42.5,38.0,30.15,NNE,31,2.0,4.0,84,0.00,,,0.00,WUHU216DAVISVP2,2013-01-03 18:08:00,
2013-01-03 13:13:00,42.6,37.8,30.15,NNE,31,0.0,4.0,83,0.00,,,0.00,WUHU216DAVISVP2,2013-01-03 18:13:00,
2013-01-03 13:18:00,42.5,37.7,30.14,NE,34,0.0,2.0,83,0.00,,,0.00,WUHU216DAVISVP2,2013-01-03 18:18:00,
2013-01-03 13:23:00,42.5,37.7,30.14,NE,34,0.0,2.0,83,0.00,,,0.00,WUHU216DAVISVP2,2013-01-03 18:23:00,
2013-01-03 13:28:00,42.6,37.8,30.14,NNE,32,0.0,1.0,83,0.00,,,0.00,WUHU216DAVISVP2,2013-01-03 18:28:00,
2013-01-03 13:33:00,42.3,37.5,30.15,NNE,32,1.0,1.0,83,0.00,,,0.00,WUHU216DAVISVP2,2013-01-03 18:33:00,
2013-01-03 13:38:00,42.3,37.5,30.15,NNE,25,2.0,2.0,83,0.00,,,0.00,WUHU216DAVISVP2,2013-01-03 18:38:00,
2013-01-03 13:43:00,42.3,37.5,30.15,NNE,25,1.0,2.0,83,0.00,,,0.00,WUHU216DAVISVP2,2013-01-03 18:43:00,
2013-01-03 13:48:00,42.3,37.5,30.15,NNE,25,0.0,2.0,83,0.00,,,0.00,WUHU216DAVISVP2,2013-01-03 18:48:00,
2013-01-03 13:53:00,42.3,37.5,30.15,NNE,25,0.0,1.0,83,0.00,,,0.00,WUHU216DAVISVP2,2013-01-03 18:53:00,
2013-01-03 13:58:00,42.3,37.5,30.15,NNE,25,0.0,1.0,83,0.00,,,0.00,WUHU216DAVISVP2,2013-01-03 18:58:00,
2013-01-03 14:03:00,42.3,37.5,30.15,NNE,25,0.0,1.0,83,0.00,,,0.00,WUHU216DAVISVP2,2013-01-03 19:03:00,
2013-01-03 14:08:00,42.5,37.7,30.15,NNE,24,0.0,2.0,83,0.00,,,0.00,WUHU216DAVISVP2,2013-01-03 19:08:00,
2013-01-03 14:13:00,42.3,37.5,30.15,NNW,346,1.0,6.0,83,0.00,,,0.00,WUHU216DAVISVP2,2013-01-03 19:13:00,
2013-01-03 14:18:00,42.2,37.4,30.15,North,354,1.0,6.0,83,0.00,,,0.00,WUHU216DAVISVP2,2013-01-03 19:18:00,
2013-01-03 14:51:00,41.9,37.1,30.15,NNW,340,1.0,2.0,83,0.00,,,0.00,WUHU216DAVISVP2,2013-01-03 19:51:00,
2013-01-03 14:56:00,41.9,37.1,30.15,NNW,340,0.0,2.0,83,0.00,,,0.00,WUHU216DAVISVP2,2013-01-03 19:56:00,
2013-01-03 15:01:00,41.9,37.1,30.15,NNW,340,0.0,2.0,83,0.00,,,0.00,WUHU216DAVISVP2,2013-01-03 20:01:00,
2013-01-03 15:06:00,41.8,37.0,30.15,NNW,340,1.0,2.0,83,0.00,,,0.00,WUHU216DAVISVP2,2013-01-03 20:06:00,
2013-01-03 15:11:00,41.8,37.0,30.15,NNW,340,4.0,4.0,83,0.00,,,0.00,WUHU216DAVISVP2,2013-01-03 20:11:00,
2013-01-03 15:16:00,41.6,36.8,30.16,NNW,340,1.0,4.0,83,0.00,,,0.00,WUHU216DAVISVP2,2013-01-03 20:16:00,
2013-01-03 15:21:00,41.6,36.8,30.16,NNW,340,0.0,4.0,83,0.00,,,0.00,WUHU216DAVISVP2,2013-01-03 20:21:00,
2013-01-03 15:26:00,41.6,36.8,30.16,NNW,340,0.0,2.0,83,0.00,,,0.00,WUHU216DAVISVP2,2013-01-03 20:26:00,
2013-01-03 15:32:00,41.5,36.7,30.17,NNW,339,0.0,2.0,83,0.00,,,0.00,WUHU216DAVISVP2,2013-01-03 20:32:00,
2013-01-03 15:37:00,41.5,36.7,30.17,NNW,343,4.0,4.0,83,0.00,,,0.00,WUHU216DAVISVP2,2013-01-03 20:37:00,
2013-01-03 15:42:00,41.5,36.7,30.17,NNW,343,0.0,4.0,83,0.00,,,0.00,WUHU216DAVISVP2,2013-01-03 20:42:00,
2013-01-03 15:47:00,41.3,36.5,30.17,NNW,343,0.0,4.0,83,0.00,,,0.00,WUHU216DAVISVP2,2013-01-03 20:47:00,
2013-01-03 15:52:00,41.3,36.5,30.17,NNW,343,0.0,2.0,83,0.00,,,0.00,WUHU216DAVISVP2,2013-01-03 20:52:00,
2013-01-03 15:56:00,41.3,36.5,30.17,NNW,343,0.0,2.0,83,0.00,,,0.00,WUHU216DAVISVP2,2013-01-03 20:56:00,
2013-01-03 16:01:00,41.2,36.4,30.18,NNW,343,0.0,1.0,83,0.00,,,0.00,WUHU216DAVISVP2,2013-01-03 21:01:00,
2013-01-03 16:06:00,41.2,36.7,30.18,NNW,343,0.0,2.0,84,0.00,,,0.00,WUHU216DAVISVP2,2013-01-03 21:06:00,
2013-01-03 16:11:00,41.2,36.7,30.18,NNW,343,0.0,6.0,84,0.00,,,0.00,WUHU216DAVISVP2,2013-01-03 21:11:00,
2013-01-03 16:16:00,41.2,36.7,30.18,NNW,343,1.0,6.0,84,0.00,,,0.00,WUHU216DAVISVP2,2013-01-03 21:16:00,
2013-01-03 16:21:00,41.2,36.7,30.18,NNW,343,0.0,2.0,84,0.00,,,0.00,WUHU216DAVISVP2,2013-01-03 21:21:00,
2013-01-03 16:26:00,41.2,36.7,30.18,NNW,343,0.0,1.0,84,0.00,,,0.00,WUHU216DAVISVP2,2013-01-03 21:26:00,
2013-01-03 16:31:00,41.2,36.7,30.18,NNW,343,0.0,1.0,84,0.00,,,0.00,WUHU216DAVISVP2,2013-01-03 21:31:00,
2013-01-03 16:36:00,41.2,36.7,30.18,NNW,343,0.0,0.0,84,0.00,,,0.00,WUHU216DAVISVP2,2013-01-03 21:36:00,
2013-01-03 16:42:00,41.2,36.7,30.18,NNW,343,0.0,0.0,84,0.00,,,0.00,WUHU216DAVISVP2,2013-01-03 21:42:00,
2013-01-03 16:47:00,41.2,36.7,30.18,NNW,343,0.0,0.0,84,0.00,,,0.00,WUHU216DAVISVP2,2013-01-03 21:47:00,
2013-01-03 16:52:00,41.2,36.7,30.18,NNW,343,0.0,0.0,84,0.00,,,0.00,WUHU216DAVISVP2,2013-01-03 21:52:00,
2013-01-03 16:57:00,41.1,36.6,30.18,NNW,343,0.0,0.0,84,0.00,,,0.00,WUHU216DAVISVP2,2013-01-03 21:57:00,
2013-01-03 17:02:00,41.1,36.9,30.18,NNW,343,0.0,0.0,85,0.00,,,0.00,WUHU216DAVISVP2,2013-01-03 22:02:00,
2013-01-03 17:07:00,41.1,36.9,30.18,NNW,343,0.0,0.0,85,0.00,,,0.00,WUHU216DAVISVP2,2013-01-03 22:07:00,
2013-01-03 17:12:00,41.1,36.9,30.18,NNW,343,0.0,0.0,85,0.00,,,0.00,WUHU216DAVISVP2,2013-01-03 22:12:00,
2013-01-03 17:17:00,41.1,36.9,30.19,NNW,343,0.0,0.0,85,0.00,,,0.00,WUHU216DAVISVP2,2013-01-03 22:17:00,
2013-01-03 17:22:00,41.1,36.9,30.19,NNW,343,0.0,0.0,85,0.00,,,0.00,WUHU216DAVISVP2,2013-01-03 22:22:00,
2013-01-03 17:27:00,41.1,36.9,30.19,NNW,343,0.0,0.0,85,0.00,,,0.00,WUHU216DAVISVP2,2013-01-03 22:27:00,
2013-01-03 17:32:00,40.9,36.7,30.19,NNW,343,0.0,0.0,85,0.00,,,0.00,WUHU216DAVISVP2,2013-01-03 22:32:00,
2013-01-03 17:37:00,40.9,36.7,30.19,NNW,343,0.0,0.0,85,0.00,,,0.00,WUHU216DAVISVP2,2013-01-03 22:37:00,
2013-01-03 17:42:00,40.9,36.7,30.19,NNW,343,0.0,0.0,85,0.00,,,0.00,WUHU216DAVISVP2,2013-01-03 22:42:00,
2013-01-03 17:47:00,40.9,36.7,30.19,NNW,343,0.0,0.0,85,0.00,,,0.00,WUHU216DAVISVP2,2013-01-03 22:47:00,
2013-01-03 17:52:00,40.9,36.7,30.19,NNW,343,0.0,0.0,85,0.00,,,0.00,WUHU216DAVISVP2,2013-01-03 22:52:00,
2013-01-03 17:57:00,40.9,36.7,30.19,NNW,343,0.0,0.0,85,0.00,,,0.00,WUHU216DAVISVP2,2013-01-03 22:57:00,
2013-01-03 18:02:00,40.8,36.6,30.19,NNW,343,0.0,0.0,85,0.00,,,0.00,WUHU216DAVISVP2,2013-01-03 23:02:00,
2013-01-03 18:07:00,40.8,36.6,30.19,NNW,343,0.0,0.0,85,0.00,,,0.00,WUHU216DAVISVP2,2013-01-03 23:07:00,
2013-01-03 18:12:00,40.8,36.6,30.19,NNW,343,0.0,0.0,85,0.00,,,0.00,WUHU216DAVISVP2,2013-01-03 23:12:00,
2013-01-03 18:17:00,40.6,36.4,30.19,NNW,343,0.0,0.0,85,0.00,,,0.00,WUHU216DAVISVP2,2013-01-03 23:17:00,
2013-01-03 18:22:00,40.6,36.4,30.19,NNW,343,0.0,0.0,85,0.00,,,0.00,WUHU216DAVISVP2,2013-01-03 23:22:00,
2013-01-03 18:27:00,40.5,36.3,30.19,NNW,343,0.0,0.0,85,0.00,,,0.00,WUHU216DAVISVP2,2013-01-03 23:27:00,
2013-01-03 18:32:00,40.2,36.0,30.20,NNW,343,0.0,0.0,85,0.00,,,0.00,WUHU216DAVISVP2,2013-01-03 23:32:00,
2013-01-03 18:37:00,39.9,35.7,30.20,NNW,343,0.0,0.0,85,0.00,,,0.00,WUHU216DAVISVP2,2013-01-03 23:37:00,
2013-01-03 18:42:00,39.6,35.4,30.20,NNW,343,0.0,0.0,85,0.00,,,0.00,WUHU216DAVISVP2,2013-01-03 23:42:00,
2013-01-03 18:47:00,39.2,35.1,30.21,NNW,343,0.0,0.0,85,0.00,,,0.00,WUHU216DAVISVP2,2013-01-03 23:47:00,
2013-01-03 18:52:00,38.9,34.8,30.21,NNW,343,0.0,0.0,85,0.00,,,0.00,WUHU216DAVISVP2,2013-01-03 23:52:00,
2013-01-03 18:57:00,38.5,34.4,30.21,NNW,343,0.0,0.0,85,0.00,,,0.00,WUHU216DAVISVP2,2013-01-03 23:57:00,
2013-01-03 19:02:00,38.2,34.4,30.21,NNW,343,0.0,0.0,86,0.00,,,0.00,WUHU216DAVISVP2,2013-01-04 00:02:00,
2013-01-03 19:07:00,37.9,34.1,30.21,NNW,343,0.0,0.0,86,0.00,,,0.00,WUHU216DAVISVP2,2013-01-04 00:07:00,
2013-01-03 19:12:00,37.6,33.8,30.21,NNW,343,0.0,0.0,86,0.00,,,0.00,WUHU216DAVISVP2,2013-01-04 00:12:00,
2013-01-03 19:17:00,37.3,33.5,30.21,NNW,343,0.0,0.0,86,0.00,,,0.00,WUHU216DAVISVP2,2013-01-04 00:17:00,
2013-01-03 19:22:00,37.0,33.2,30.21,NNW,343,0.0,0.0,86,0.00,,,0.00,WUHU216DAVISVP2,2013-01-04 00:22:00,
2013-01-03 19:27:00,36.8,33.0,30.21,NNW,343,0.0,0.0,86,0.00,,,0.00,WUHU216DAVISVP2,2013-01-04 00:27:00,
2013-01-03 19:32:00,36.5,32.7,30.21,NNW,343,0.0,0.0,86,0.00,,,0.00,WUHU216DAVISVP2,2013-01-04 00:32:00,
2013-01-03 19:37:00,36.0,32.2,30.21,NNW,343,0.0,0.0,86,0.00,,,0.00,WUHU216DAVISVP2,2013-01-04 00:37:00,
2013-01-03 19:42:00,35.9,32.1,30.21,NNW,343,0.0,0.0,86,0.00,,,0.00,WUHU216DAVISVP2,2013-01-04 00:42:00,
2013-01-03 19:47:00,35.6,31.8,30.21,NNW,343,0.0,0.0,86,0.00,,,0.00,WUHU216DAVISVP2,2013-01-04 00:47:00,
2013-01-03 19:52:00,35.3,31.5,30.21,NNW,343,0.0,0.0,86,0.00,,,0.00,WUHU216DAVISVP2,2013-01-04 00:52:00,
2013-01-03 19:57:00,35.0,31.2,30.21,NNW,343,0.0,0.0,86,0.00,,,0.00,WUHU216DAVISVP2,2013-01-04 00:57:00,
2013-01-03 20:02:00,34.9,31.4,30.22,NNW,343,0.0,0.0,87,0.00,,,0.00,WUHU216DAVISVP2,2013-01-04 01:02:00,
2013-01-03 20:07:00,34.6,31.1,30.22,NNW,343,0.0,0.0,87,0.00,,,0.00,WUHU216DAVISVP2,2013-01-04 01:07:00,
2013-01-03 20:12:00,34.4,30.9,30.22,NNW,343,0.0,0.0,87,0.00,,,0.00,WUHU216DAVISVP2,2013-01-04 01:12:00,
2013-01-03 20:17:00,34.1,30.6,30.22,NNW,343,0.0,0.0,87,0.00,,,0.00,WUHU216DAVISVP2,2013-01-04 01:17:00,
2013-01-03 20:22:00,33.8,30.3,30.22,NNW,343,0.0,0.0,87,0.00,,,0.00,WUHU216DAVISVP2,2013-01-04 01:22:00,
2013-01-03 20:27:00,33.7,30.2,30.22,NNW,343,0.0,0.0,87,0.00,,,0.00,WUHU216DAVISVP2,2013-01-04 01:27:00,
2013-01-03 20:32:00,33.5,30.0,30.22,NNW,343,0.0,0.0,87,0.00,,,0.00,WUHU216DAVISVP2,2013-01-04 01:32:00,
2013-01-03 20:37:00,33.4,29.9,30.22,NNW,343,0.0,0.0,87,0.00,,,0.00,WUHU216DAVISVP2,2013-01-04 01:37:00,
2013-01-03 20:42:00,33.2,30.0,30.22,NNW,343,0.0,0.0,88,0.00,,,0.00,WUHU216DAVISVP2,2013-01-04 01:42:00,
2013-01-03 20:47:00,33.1,29.9,30.22,NNW,343,0.0,0.0,88,0.00,,,0.00,WUHU216DAVISVP2,2013-01-04 01:47:00,
2013-01-03 20:52:00,33.1,29.9,30.22,NNW,343,0.0,0.0,88,0.00,,,0.00,WUHU216DAVISVP2,2013-01-04 01:52:00,
2013-01-03 20:57:00,33.1,29.9,30.22,NNW,343,0.0,0.0,88,0.00,,,0.00,WUHU216DAVISVP2,2013-01-04 01:57:00,
2013-01-03 21:02:00,33.1,29.9,30.23,NNW,343,0.0,1.0,88,0.00,,,0.00,WUHU216DAVISVP2,2013-01-04 02:02:00,
2013-01-03 21:07:00,32.9,29.7,30.23,NNW,343,0.0,1.0,88,0.00,,,0.00,WUHU216DAVISVP2,2013-01-04 02:07:00,
2013-01-03 21:12:00,32.9,29.7,30.23,NNW,343,0.0,1.0,88,0.00,,,0.00,WUHU216DAVISVP2,2013-01-04 02:12:00,
2013-01-03 21:17:00,32.8,29.6,30.23,NNW,343,0.0,0.0,88,0.00,,,0.00,WUHU216DAVISVP2,2013-01-04 02:17:00,
2013-01-03 21:22:00,32.7,29.5,30.23,NNW,343,0.0,0.0,88,0.00,,,0.00,WUHU216DAVISVP2,2013-01-04 02:22:00,
2013-01-03 21:27:00,32.4,29.2,30.23,NNW,343,0.0,0.0,88,0.00,,,0.00,WUHU216DAVISVP2,2013-01-04 02:27:00,
2013-01-03 21:32:00,32.4,29.2,30.23,NNW,343,0.0,0.0,88,0.00,,,0.00,WUHU216DAVISVP2,2013-01-04 02:32:00,
2013-01-03 21:37:00,32.1,28.9,30.23,NNW,343,0.0,0.0,88,0.00,,,0.00,WUHU216DAVISVP2,2013-01-04 02:37:00,
2013-01-03 21:42:00,32.1,28.9,30.23,NNW,343,0.0,0.0,88,0.00,,,0.00,WUHU216DAVISVP2,2013-01-04 02:42:00,
2013-01-03 21:47:00,32.1,28.9,30.23,NNW,343,0.0,0.0,88,0.00,,,0.00,WUHU216DAVISVP2,2013-01-04 02:47:00,
2013-01-03 21:52:00,32.1,28.9,30.23,NNW,343,0.0,0.0,88,0.00,,,0.00,WUHU216DAVISVP2,2013-01-04 02:52:00,
2013-01-03 21:57:00,32.1,28.9,30.23,NNW,343,0.0,0.0,88,0.00,,,0.00,WUHU216DAVISVP2,2013-01-04 02:57:00,
2013-01-03 22:02:00,32.1,28.9,30.24,NNW,343,0.0,0.0,88,0.00,,,0.00,WUHU216DAVISVP2,2013-01-04 03:02:00,
2013-01-03 22:07:00,32.2,29.0,30.24,NNW,343,0.0,0.0,88,0.00,,,0.00,WUHU216DAVISVP2,2013-01-04 03:07:00,
2013-01-03 22:12:00,32.2,29.3,30.24,NNW,343,0.0,0.0,89,0.00,,,0.00,WUHU216DAVISVP2,2013-01-04 03:12:00,
2013-01-03 22:17:00,32.4,29.5,30.23,NNW,343,0.0,0.0,89,0.00,,,0.00,WUHU216DAVISVP2,2013-01-04 03:17:00,
2013-01-03 22:22:00,32.5,29.6,30.23,NNW,343,0.0,0.0,89,0.00,,,0.00,WUHU216DAVISVP2,2013-01-04 03:22:00,
2013-01-03 22:27:00,32.5,29.6,30.23,NNW,343,0.0,0.0,89,0.00,,,0.00,WUHU216DAVISVP2,2013-01-04 03:27:00,
2013-01-03 22:32:00,32.5,29.6,30.23,NNW,343,0.0,0.0,89,0.00,,,0.00,WUHU216DAVISVP2,2013-01-04 03:32:00,
2013-01-03 22:37:00,32.7,29.8,30.23,NNW,343,0.0,0.0,89,0.00,,,0.00,WUHU216DAVISVP2,2013-01-04 03:37:00,
2013-01-03 22:42:00,32.7,29.8,30.23,NNW,343,0.0,0.0,89,0.00,,,0.00,WUHU216DAVISVP2,2013-01-04 03:42:00,
2013-01-03 22:47:00,32.5,29.6,30.23,NNW,343,0.0,0.0,89,0.00,,,0.00,WUHU216DAVISVP2,2013-01-04 03:47:00,
2013-01-03 22:52:00,32.7,29.8,30.23,NNW,343,0.0,0.0,89,0.00,,,0.00,WUHU216DAVISVP2,2013-01-04 03:52:00,
2013-01-03 22:57:00,32.5,29.6,30.23,NNW,343,0.0,0.0,89,0.00,,,0.00,WUHU216DAVISVP2,2013-01-04 03:57:00,
2013-01-03 23:02:00,32.5,29.6,30.24,NNW,343,0.0,0.0,89,0.00,,,0.00,WUHU216DAVISVP2,2013-01-04 04:02:00,
2013-01-03 23:07:00,32.5,29.6,30.24,NNW,343,0.0,0.0,89,0.00,,,0.00,WUHU216DAVISVP2,2013-01-04 04:07:00,
2013-01-03 23:12:00,32.5,29.6,30.24,NNW,343,0.0,1.0,89,0.00,,,0.00,WUHU216DAVISVP2,2013-01-04 04:12:00,
2013-01-03 23:17:00,32.5,29.6,30.24,NNW,343,0.0,2.0,89,0.00,,,0.00,WUHU216DAVISVP2,2013-01-04 04:17:00,
2013-01-03 23:22:00,32.5,29.6,30.24,NNW,343,0.0,2.0,89,0.00,,,0.00,WUHU216DAVISVP2,2013-01-04 04:22:00,
2013-01-03 23:27:00,32.4,29.5,30.24,NNW,343,0.0,0.0,89,0.00,,,0.00,WUHU216DAVISVP2,2013-01-04 04:27:00,
2013-01-03 23:32:00,32.2,29.3,30.24,NNW,343,0.0,0.0,89,0.00,,,0.00,WUHU216DAVISVP2,2013-01-04 04:32:00,
2013-01-03 23:37:00,32.1,29.2,30.24,NNW,343,0.0,0.0,89,0.00,,,0.00,WUHU216DAVISVP2,2013-01-04 04:37:00,
2013-01-03 23:42:00,32.2,29.3,30.24,NNW,343,0.0,0.0,89,0.00,,,0.00,WUHU216DAVISVP2,2013-01-04 04:42:00,
2013-01-03 23:47:00,32.1,29.2,30.24,NNW,343,0.0,0.0,89,0.00,,,0.00,WUHU216DAVISVP2,2013-01-04 04:47:00,
2013-01-03 23:52:00,31.9,29.0,30.24,NNW,343,0.0,0.0,89,0.00,,,0.00,WUHU216DAVISVP2,2013-01-04 04:52:00,
2013-01-03 23:57:00,31.9,29.0,30.24,NNW,343,0.0,0.0,89,0.00,,,0.00,WUHU216DAVISVP2,2013-01-04 04:57:00,